|
Cosmos 1151 Rocket - Orbit
|
D.A.R.C. Observatory;
16:59:59
| Home | Info | Passes |
|
View from above orbital plane
|
View from above satellite
|
Ground track
|
The orbit data is extracted from the following two-line orbital elements,
1 11672U 80005B 13169.11168632 .00000287 00000-0 29378-4 0 7211
2 11672 082.5154 016.5417 0018657 120.1196 029.4660 14.86771946806357
| Epoch (UTC): | 18 June 2013 02:40:49 |
| Eccentricity: | 0.0018657 |
| inclination: | 82.5154° |
| perigee height: | 595 km |
| apogee height: | 621 km |
| right ascension of ascending node: | 16.5417° |
| argument of perigee: | 120.1196° |
| revolutions per day: | 14.86771946 |
| mean anomaly at epoch: | 29.4660° |
| orbit number at epoch: | 80635 |
The dashed part of the orbit path shows where the satellite is in the earth's shadow,
|
|